[[{"header":{"parameterUnit":"m.s-1","parameterCategory":1,"la1":30.2991,"la2":30.254,"lo1":-89.0895,"lo2":-89.0444,"dy":0.0017,"dx":0.0017,"nx":28,"ny":28,"refTime":"2023-04-08T21:00:00:Z","depth":0,"parameterNumber":2,"parameterNumberName":"U-component_of_WINDS"},"data":[0,0,0,0,0,0,0,0,0,0,0,0,0,0,0,0,0,0,0,0,0,0,0,0,0,0,0,0,0,0,0,0,0,0,0,0,0,0,0,0,0,0,0,0,0,0,0,0,0,0,0,0,0,0,0,0,0,0,-4.1561,-4.1562,0,-4.1668,-4.167,-4.1671,-4.1612,-4.1609,-4.1606,-4.1603,-4.1713,-4.1719,-4.1724,0,0,0,0,0,0,0,0,0,0,0,0,0,-4.1302,-4.1308,-4.156,-4.1562,-4.1563,-4.1668,-4.167,-4.1671,-4.1612,-4.1609,-4.1605,-4.1602,-4.1711,-4.1718,-4.1725,0,0,0,0,0,0,0,0,0,0,0,0,0,-4.1413,-4.1309,-4.156,-4.1546,-4.1546,-4.1668,-4.167,-4.1672,-4.1613,-4.1608,-4.1604,-4.16,-4.1709,-4.1717,-4.1726,-4.1867,0,0,-4.1752,-4.1756,0,0,0,0,0,0,0,0,-4.1407,-4.1422,-4.1547,-4.1548,-4.1548,-4.1622,-4.1619,-4.1737,-4.1614,-4.1588,-4.1603,-4.1598,-4.1686,-4.1697,-4.1726,-4.1872,-4.1877,-4.1753,-4.1758,-4.1761,-4.1764,0,0,0,0,0,0,0,-4.1399,-4.1417,-4.1603,-4.1549,-4.1549,-4.1534,-4.1545,-4.1641,-4.1661,-4.159,-4.1586,-4.1599,-4.1686,-4.1718,-4.1729,-4.1879,-4.1752,-4.176,-4.1765,-4.1769,-4.2146,-4.215,0,0,0,0,0,0,-4.1392,-4.1411,-4.16,-4.1606,-4.1465,-4.1543,-4.1555,-4.1603,-4.1659,-4.1664,-4.1603,-4.1596,-4.1706,-4.1719,-4.1732,-4.1902,-4.1761,-4.1769,-4.1774,-4.2141,-4.2147,-4.2152,0,0,0,0,0,0,-4.1387,-4.141,-4.1595,-4.1508,-4.153,-4.1552,-4.1606,-4.1607,-4.164,-4.1669,-4.1672,-4.1633,-4.1703,-4.172,-4.1834,-4.1905,-4.1773,-4.1781,-4.2135,-4.2143,-4.215,-4.2242,0,0,0,0,0,0,-4.138,-4.1408,-4.1463,-4.151,-4.1535,-4.1696,-4.161,-4.1612,-4.1655,-4.1647,-4.1698,-4.1703,-4.1701,-4.1822,-4.1843,-4.1914,-4.1788,-4.2129,-4.2139,-4.2147,-4.2233,-4.2252,-4.2268,0,0,0,0,0,-4.1371,-4.1484,-4.1466,-4.1489,-4.1604,-4.17,-4.1715,-4.1711,-4.1661,-4.1715,-4.1734,-4.1701,-4.1893,-4.1834,-4.1857,-4.1932,-4.2124,-4.2136,-4.2146,-4.2225,-4.2248,-4.2267,0,0,0,0,0,0,-4.1445,-4.149,-4.147,-4.1602,-4.1648,-4.169,-4.1759,-4.1735,-4.1796,-4.1786,-4.1778,-4.179,-4.1909,-4.1931,-4.1864,-4.2072,-4.2001,-4.2017,-4.2053,-4.2075,-4.2092,-4.2085,-4.1795,0,0,0,0,0,-4.1476,-4.1551,-4.1587,-4.17,-4.1724,-4.1737,-4.1779,-4.1772,-4.1819,-4.1838,-4.1865,-4.1912,-4.1983,-4.203,-4.2097,-4.2235,-4.2246,-4.2298,-4.2316,-4.233,-4.2344,-4.2419,-4.2443,-4.2188,-4.2188,-4.2188,0,0,-4.1543,-4.1577,-4.1624,-4.1715,-4.175,-4.1828,-4.1754,-4.1839,-4.1897,-4.1851,-4.196,-4.1982,-4.2033,-4.216,-4.2218,-4.2183,-4.2417,-4.2344,-4.2355,-4.2362,-4.2433,-4.2457,-4.2479,-4.2196,-4.2194,-4.2193,0,0,-4.1703,-4.1736,-4.1834,-4.187,-4.1923,-4.1932,-4.1955,-4.2001,-4.2014,-4.2124,-4.2091,-4.2159,-4.2281,-4.2319,-4.2355,-4.2529,-4.2501,-4.2551,-4.2643,-4.2716,-4.2736,-4.2754,-4.2816,-4.2839,-4.2565,-4.2565,-4.2565,0,-4.1779,-4.1894,-4.1887,-4.1975,-4.2016,-4.1978,-4.2077,-4.2112,-4.2185,-4.2214,-4.2174,-4.2327,-4.2359,-4.2494,-4.2537,-4.2566,-4.2593,-4.2546,-4.2734,-4.2752,-4.2768,-4.2828,-4.2851,-4.2571,-4.257,-4.257,-4.2569,0,-4.1985,-4.2066,-4.2138,-4.221,-4.2258,-4.2351,-4.2358,-4.2408,-4.2397,-4.2409,-4.2521,-4.2558,-4.2632,-4.2663,-4.2652,-4.2797,-4.2774,-4.2734,-4.2663,-4.2798,-4.2854,-4.2877,-4.2579,-4.2577,-4.2575,-4.2574,0,0,-4.2196,-4.2261,-4.2288,-4.232,-4.2376,-4.2438,-4.2529,-4.2601,-4.2645,-4.2696,-4.2772,-4.2876,-4.284,-4.288,-4.2873,-4.2937,-4.3073,-4.2889,-4.2891,-4.2923,-4.3235,-4.3265,-4.3292,-4.3054,-4.3059,-4.3062,-4.3231,0,-4.236,-4.252,-4.2516,-4.2664,-4.2739,-4.2703,-4.2783,-4.2825,-4.2839,-4.2904,-4.2919,-4.2993,-4.2939,-4.2963,-4.3025,-4.3044,-4.3136,-4.3031,-4.3126,-4.3129,-4.3115,-4.3321,-4.3354,-4.3511,-4.3253,-4.3257,-4.3259,0,-4.2574,-4.2632,-4.2789,-4.2833,-4.2864,-4.2936,-4.3001,-4.3064,-4.3111,-4.3117,-4.3162,-4.3145,-4.3237,-4.3162,-4.3289,-4.3218,-4.3256,-4.3271,-4.3277,-4.3286,-4.3203,-4.3337,-4.3561,-4.3585,-4.3293,-4.3291,-4.3288,0,-4.2713,-4.2831,-4.2939,-4.2967,-4.3022,-4.3073,-4.3098,-4.3141,-4.3185,-4.3242,-4.327,-4.3337,-4.3374,-4.3427,-4.3428,-4.3374,-4.3556,-4.3482,-4.3563,-4.3564,-4.3604,-4.3602,-4.3839,-4.3628,-4.3627,-4.3627,-4.3626,0,-4.2898,-4.2995,-4.3002,-4.3069,-4.3177,-4.3171,-4.3277,-4.3297,-4.3336,-4.3406,-4.3378,-4.3445,-4.3442,-4.3509,-4.351,-4.3615,-4.3632,-4.3639,-4.3638,-4.3642,-4.3641,-4.3667,-4.3657,-4.3633,-4.3632,-4.3631,-4.3629,0,-4.3072,-4.3081,-4.3197,-4.3239,-4.3252,-4.3329,-4.3365,-4.3429,-4.3439,-4.3528,-4.3549,-4.3566,-4.3644,-4.365,-4.3739,-4.374,-4.3868,-4.3855,-4.3852,-4.385,-4.3931,-4.3924,-4.4194,-4.4229,-4.3995,-4.3997,-4.3999,0,-4.319,-4.3264,-4.3314,-4.3359,-4.3387,-4.346,-4.3504,-4.35,-4.3548,-4.3607,-4.3663,-4.3738,-4.3798,-4.3923,-4.3944,-4.4012,-4.4001,-4.4091,-4.4011,-4.4012,-4.4003,-4.3999,-4.4006,-4.4107,-4.4109,-4.4111,-4.4113,0,-4.3398,-4.3399,-4.3464,-4.3531,-4.3585,-4.3637,-4.3686,-4.3725,-4.3727,-4.3781,-4.386,-4.3907,-4.3998,-4.4073,-4.4139,-4.4164,-4.414,-4.4138,-4.4161,-4.4166,-4.4161,-4.4165,-4.3895,-4.4132,-4.413,-4.4129,-4.4128,-4.4127,-4.3548,-4.3612,-4.3658,-4.3731,-4.3767,-4.3814,-4.3875,-4.3894,-4.396,-4.4034,-4.4028,-4.4115,-4.416,-4.4247,-4.4278,-4.4346,-4.4315,-4.4348,-4.4357,-4.4365,-4.4374,-4.415,-4.4358,-4.4357,-4.4357,-4.4356,-4.4356,0,-4.3756,-4.3783,-4.3851,-4.392,-4.3978,-4.3949,-4.4001,-4.4052,-4.4129,-4.4173,-4.4232,-4.4323,-4.4395,-4.4421,-4.4491,-4.4541,-4.4531,-4.4559,-4.4556,-4.4562,-4.4397,-4.437,-4.4566,-4.4566,-4.4566,-4.4566,-4.4566,-4.4566,-4.3871,-4.3977,-4.3983,-4.4108,-4.4134,-4.422,-4.4252,-4.4295,-4.433,-4.4432,-4.4492,-4.4509,-4.4545,-4.4618,-4.4683,-4.4688,-4.4716,-4.4749,-4.475,-4.4595,-4.4574,-4.4554,-4.4529,-4.4755,-4.4755,-4.491,-4.4912,-4.4913]},{"header":{"parameterUnit":"m.s-1","parameterCategory":1,"la1":30.2991,"la2":30.254,"lo1":-89.0895,"lo2":-89.0444,"dy":0.0017,"dx":0.0017,"nx":28,"ny":28,"refTime":"2023-04-08T21:00:00:Z","depth":0,"parameterNumber":3,"parameterNumberName":"V-component_of_WINDS"},"data":[0,0,0,0,0,0,0,0,0,0,0,0,0,0,0,0,0,0,0,0,0,0,0,0,0,0,0,0,0,0,0,0,0,0,0,0,0,0,0,0,0,0,0,0,0,0,0,0,0,0,0,0,0,0,0,0,0,0,-6.5345,-6.5345,0,-6.5419,-6.542,-6.5421,-6.5355,-6.5352,-6.5349,-6.5347,-6.5418,-6.5422,-6.5426,0,0,0,0,0,0,0,0,0,0,0,0,0,-6.5137,-6.5142,-6.5344,-6.5345,-6.5346,-6.5419,-6.542,-6.5421,-6.5355,-6.5352,-6.5349,-6.5345,-6.5416,-6.5422,-6.5427,0,0,0,0,0,0,0,0,0,0,0,0,0,-6.5221,-6.5143,-6.5344,-6.5322,-6.5321,-6.5419,-6.542,-6.5422,-6.5356,-6.5352,-6.5348,-6.5344,-6.5415,-6.5421,-6.5428,-6.555,0,0,-6.5448,-6.5451,0,0,0,0,0,0,0,0,-6.5217,-6.5229,-6.5325,-6.5324,-6.5323,-6.5374,-6.5373,-6.5464,-6.5357,-6.5342,-6.5347,-6.5342,-6.5406,-6.5413,-6.5436,-6.5553,-6.5556,-6.5448,-6.5452,-6.5455,-6.5457,0,0,0,0,0,0,0,-6.5211,-6.5225,-6.5374,-6.5326,-6.5325,-6.5306,-6.5314,-6.539,-6.5396,-6.5343,-6.5339,-6.5349,-6.5405,-6.543,-6.5437,-6.5557,-6.5448,-6.5454,-6.5458,-6.5461,-6.5775,-6.578,0,0,0,0,0,0,-6.5208,-6.5221,-6.5371,-6.5376,-6.5259,-6.5313,-6.5322,-6.5361,-6.5395,-6.5396,-6.5352,-6.5345,-6.542,-6.5429,-6.5439,-6.5583,-6.5455,-6.5461,-6.5465,-6.5771,-6.5776,-6.5781,0,0,0,0,0,0,-6.5204,-6.5222,-6.5368,-6.5297,-6.5315,-6.5321,-6.5366,-6.5365,-6.539,-6.5402,-6.5402,-6.5377,-6.5418,-6.543,-6.5523,-6.5585,-6.5464,-6.547,-6.5766,-6.5773,-6.5779,-6.5873,0,0,0,0,0,0,-6.5198,-6.5221,-6.5269,-6.5299,-6.5319,-6.5453,-6.537,-6.5369,-6.5402,-6.5394,-6.5425,-6.5426,-6.5415,-6.5513,-6.5529,-6.5592,-6.5476,-6.576,-6.5769,-6.5777,-6.5864,-6.5882,-6.5897,0,0,0,0,0,-6.5191,-6.5292,-6.5272,-6.5291,-6.5379,-6.5457,-6.5468,-6.5455,-6.5408,-6.5455,-6.5462,-6.5425,-6.5575,-6.5523,-6.5541,-6.5606,-6.5756,-6.5767,-6.5776,-6.5857,-6.5878,-6.5896,0,0,0,0,0,0,-6.5268,-6.5295,-6.5274,-6.5388,-6.5421,-6.5445,-6.5505,-6.5478,-6.5524,-6.5514,-6.5494,-6.5501,-6.5599,-6.5611,-6.5553,-6.5725,-6.5658,-6.5672,-6.5713,-6.5734,-6.575,-6.5744,-6.5481,0,0,0,0,0,-6.5298,-6.5361,-6.5381,-6.5479,-6.5497,-6.5498,-6.5531,-6.5518,-6.5551,-6.5564,-6.5578,-6.5609,-6.5663,-6.5699,-6.5749,-6.5865,-6.587,-6.5919,-6.5935,-6.5948,-6.5961,-6.6021,-6.6042,-6.5814,-6.5814,-6.5813,0,0,-6.5361,-6.5384,-6.5424,-6.5495,-6.5519,-6.5582,-6.551,-6.558,-6.5626,-6.5574,-6.5663,-6.5674,-6.5707,-6.5812,-6.5858,-6.5825,-6.6025,-6.5961,-6.5972,-6.5976,-6.6033,-6.6055,-6.6074,-6.582,-6.5819,-6.5818,0,0,-6.5508,-6.5532,-6.5616,-6.5642,-6.568,-6.568,-6.57,-6.5729,-6.5735,-6.5824,-6.5785,-6.5838,-6.5932,-6.5957,-6.5982,-6.6137,-6.6105,-6.6154,-6.6239,-6.6298,-6.6316,-6.6332,-6.6386,-6.6406,-6.6166,-6.6166,-6.6166,0,-6.558,-6.5676,-6.5662,-6.5735,-6.5766,-6.5724,-6.5807,-6.5832,-6.5883,-6.5905,-6.5867,-6.5984,-6.6003,-6.6112,-6.615,-6.6172,-6.6193,-6.615,-6.6315,-6.6331,-6.6346,-6.6397,-6.6417,-6.6172,-6.6171,-6.6171,-6.617,0,-6.5763,-6.583,-6.5893,-6.5946,-6.5984,-6.6062,-6.6057,-6.6097,-6.608,-6.6084,-6.6174,-6.6195,-6.6249,-6.6274,-6.6258,-6.638,-6.6358,-6.6319,-6.6251,-6.6374,-6.6421,-6.6441,-6.618,-6.6178,-6.6176,-6.6175,0,0,-6.5961,-6.6004,-6.6028,-6.605,-6.6088,-6.6138,-6.6213,-6.6267,-6.6301,-6.6337,-6.6398,-6.6478,-6.6442,-6.647,-6.6456,-6.6508,-6.6628,-6.6462,-6.6462,-6.6491,-6.6762,-6.6792,-6.6815,-6.6607,-6.661,-6.6613,-6.6759,0,-6.6108,-6.6241,-6.623,-6.6354,-6.6414,-6.6374,-6.6438,-6.6467,-6.6472,-6.6522,-6.6526,-6.6583,-6.6531,-6.6547,-6.6597,-6.6603,-6.6682,-6.6592,-6.6661,-6.6664,-6.6654,-6.684,-6.6871,-6.7008,-6.6778,-6.6781,-6.6783,0,-6.6298,-6.6343,-6.6474,-6.6502,-6.6527,-6.6586,-6.6633,-6.6682,-6.6713,-6.6713,-6.6744,-6.6721,-6.6794,-6.6725,-6.6824,-6.6763,-6.679,-6.6797,-6.6802,-6.6807,-6.6731,-6.6849,-6.7052,-6.7072,-6.6813,-6.681,-6.6808,0,-6.6428,-6.6521,-6.6611,-6.6632,-6.6667,-6.6709,-6.6725,-6.6752,-6.6785,-6.6825,-6.6846,-6.6894,-6.6921,-6.6957,-6.6947,-6.6898,-6.7048,-6.6978,-6.7047,-6.7048,-6.708,-6.7078,-6.7289,-6.7099,-6.7099,-6.7099,-6.7098,0,-6.6594,-6.6675,-6.667,-6.6725,-6.6814,-6.6799,-6.6887,-6.6898,-6.6922,-6.6977,-6.6944,-6.6996,-6.6979,-6.7029,-6.7021,-6.7103,-6.7116,-6.7116,-6.7113,-6.7119,-6.7119,-6.7136,-6.7126,-6.7104,-6.7103,-6.7102,-6.7101,0,-6.6754,-6.6754,-6.6849,-6.6875,-6.6883,-6.6947,-6.6967,-6.7018,-6.702,-6.709,-6.7105,-6.7107,-6.7165,-6.7158,-6.7222,-6.7216,-6.7318,-6.7303,-6.7308,-6.7305,-6.7374,-6.7367,-6.7602,-6.7632,-6.7424,-6.7426,-6.7428,0,-6.686,-6.6921,-6.6954,-6.6989,-6.7008,-6.7066,-6.7099,-6.7086,-6.7121,-6.7161,-6.7207,-6.7261,-6.7304,-6.7397,-6.7403,-6.7451,-6.7437,-6.7516,-6.7444,-6.7447,-6.7437,-6.7433,-6.7438,-6.753,-6.7532,-6.7534,-6.7536,0,-6.7047,-6.7043,-6.7094,-6.7145,-6.7186,-6.7224,-6.7259,-6.7289,-6.7279,-6.732,-6.738,-6.7413,-6.7478,-6.7532,-6.7577,-6.7591,-6.7561,-6.7559,-6.7577,-6.7583,-6.7583,-6.7583,-6.7346,-6.7553,-6.7551,-6.755,-6.7549,-6.7548,-6.7182,-6.7235,-6.7266,-6.7322,-6.7348,-6.7381,-6.743,-6.7438,-6.7488,-6.7541,-6.7529,-6.7595,-6.7622,-6.768,-6.7699,-6.7749,-6.7719,-6.7746,-6.7753,-6.776,-6.7767,-6.7576,-6.7757,-6.7756,-6.7756,-6.7755,-6.7755,0,-6.7366,-6.7384,-6.7437,-6.7488,-6.7532,-6.7502,-6.7538,-6.7577,-6.7636,-6.7665,-6.7708,-6.7775,-6.7826,-6.7836,-6.7885,-6.7923,-6.791,-6.7936,-6.7933,-6.7936,-6.7791,-6.777,-6.7945,-6.7945,-6.7945,-6.7945,-6.7945,-6.7945,-6.7468,-6.7555,-6.7555,-6.7653,-6.767,-6.7736,-6.7759,-6.7788,-6.7811,-6.7888,-6.7932,-6.7938,-6.7959,-6.8009,-6.8054,-6.8055,-6.8074,-6.8105,-6.8101,-6.7965,-6.7946,-6.7928,-6.7908,-6.811,-6.811,-6.8241,-6.8243,-6.8244]}]]